Tracking 29892 objects as of 21-Nov-2024
HD Live streaming from Space Station
objects crossing your sky now

STARLINK-1627

Track STARLINK-1627 now!
10-day predictions
STARLINK-1627 is classified as:


NORAD ID: 46168
Int'l Code: 2020-057BD
Perigee: 553.3 km
Apogee: 555.1 km
Inclination: 53.1 °
Period: 95.6 minutes
Semi major axis: 6925 km
RCS: Unknown
Launch date: August 18, 2020
Source: United States (US)
Launch site: AIR FORCE EASTERN TEST RANGE (AFETR)
Your satellite tracking list
Your tracking list is empty




NASA's NSSDC Master Catalog

Two Line Element Set (TLE):
1 46168U 20057BD  24325.79268663  .00023031  00000-0  15582-2 0  9994
2 46168  53.0531 234.1087 0001270  93.4252 266.6882 15.06442711235991
Source of the keplerian elements: AFSPC